Regional Weather Roundup
Issued by NWS

Home | Current Version | Previous Version | Graphics & Text | Print | Product List | Glossary On
Versions: 1 2 3 4 5 6 7 8 9 10 11 12 13 14 15 16 17 18 19 20 21 22 23 24 25 26 27 28 29 30 31 32 33 34 35 36 37 38 39 40 41 42 43 44 45 46 47 48 49 50
000
ASUS43 KDTX 232001
RWRMI
MICHIGAN HOURLY REGIONAL WEATHER ROUNDUP
NATIONAL WEATHER SERVICE DETROIT/PONTIAC MI
400 PM EDT SAT SEP 23 2017

NOTE: "FAIR" INDICATES FEW OR NO CLOUDS BELOW 12,000 FEET WITH NO
SIGNIFICANT WEATHER AND/OR OBSTRUCTION TO VISIBILITY.

MIZ047>049-052>055-059>063-066>070-074>076-081>083-232100-
SOUTHEAST LOWER MICHIGAN

CITY           SKY/WX    TMP DP  RH WIND       PRES   REMARKS
ADRIAN         SUNNY     92  58  31 VRB6      30.12F HX  91
ALMA           MOSUNNY   92  54  27 S6        30.09F HX  90
ANN ARBOR      SUNNY     92  63  38 E10       30.12F HX  93
BAD AXE        SUNNY     90  61  37 NW5       30.12S HX  90
CARO           SUNNY     91  62  37 S3        30.10F HX  92
DETROIT CITY   SUNNY     89  61  38 SE6       30.12F
DETROIT        MOSUNNY   90  62  39 SE5       30.13F HX  90
FLINT          SUNNY     92  60  34 CALM      30.11F HX  91
GROSSE ILE     SUNNY     80  70  71 S7        30.12F
HILLSDALE      SUNNY     90  55  31 SE5       30.13F
HOWELL         SUNNY     92  55  28 SW3       30.12F

CITY           SKY/WX    TMP DP  RH WIND       PRES   REMARKS
LAMBERTVILLE   SUNNY     88  63  43 E5        30.12F
LANSING        SUNNY     92  59  33 VRB7      30.11F HX  91
LAPEER         FAIR      91  60  35 CALM      30.12F HX  90
MASON          SUNNY     93  56  28 E7        30.11F HX  91
MONROE         SUNNY     88  60  39 E7        30.12F
PONTIAC        MOSUNNY   90  61  37 SE8       30.12F HX  90
PORT HOPE        N/A     79  70  74 SE3       30.09F
PORT HURON     SUNNY     91  63  38 CALM      30.11F HX  92
TRI CITIES     PTSUNNY   93  66  40 S7        30.09F HX  96
MIDLAND        FAIR      94  63  35 SW5       30.08F HX  95
TROY           SUNNY     91  61  36 E7        30.13F HX  91
SAGINAW HB     SUNNY     91  61  35 SW3       30.09F HX  91
$$
MIZ043>046-050>051-056>058-064>065-071>073-077>080-232100-
SOUTHWEST LOWER MICHIGAN

CITY           SKY/WX    TMP DP  RH WIND       PRES   REMARKS
BATTLE CREEK   SUNNY     93  56  28 S8        30.11F HX  91
BENTON HARBOR  SUNNY     87  66  49 NW7       30.08F
BIG RAPIDS     SUNNY     91  61  36 W7        30.09F HX  90
COLDWATER      SUNNY     90  57  32 SE6       30.11F
FREMONT        FAIR      92  61  36 W7        30.08F HX  91
HOLLAND        SUNNY     92  65  40 VRB5      30.09F HX  94
GRAND RAPIDS   MOSUNNY   91  62  37 S3        30.09F HX  91
IONIA          FAIR      95  57  27 SW3       30.08F HX  93
KALAMAZOO      SUNNY     93  52  24 S6        30.09F HX  90
LUDINGTON      SUNNY     85  67  53 SW8       30.08F
MARSHALL       SUNNY     92  57  30 S6        30.10F HX  90
MUSKEGON       MOSUNNY   92  65  40 SW7       30.09F HX  94
SOUTH HAVEN    SUNNY     88  65  47 N7        30.08F HX  90
$$
MIZ016>042-232100-
NORTHERN LOWER MICHIGAN

CITY           SKY/WX    TMP DP  RH WIND       PRES   REMARKS
ALPENA         SUNNY     92  68  45 SW7       30.07F HX  96
BEAVER ISLAND  CLOUDY    84  65  53 SW12      30.05F
BELLAIRE       SUNNY     91  62  39 CALM      30.06F HX  91
CADILLAC       SUNNY     93  59  31 SW10      30.10F HX  92
CHARLEVOIX     SUNNY     89  61  39 SW8       30.09F
FRANKFORT      SUNNY     85  66  52 SW7       30.08S
GAYLORD        SUNNY     88  62  41 W8        30.11F
GRAYLING       SUNNY     91  62  37 W7        30.11F HX  91
HARBOR SPRINGS SUNNY     84  64  50 SW5       30.06F
HOUGHTON LAKE  SUNNY     89  63  41 NW5       30.11F HX  90
MANISTEE       SUNNY     90  68  48 SW9       30.07F HX  94
OSCODA         SUNNY     89  67  48 S6        30.08S HX  92
PELLSTON       SUNNY     89  64  43 SW12      30.06F HX  90
ROGERS CITY    MOSUNNY   83  67  58 N5        30.08S
TRAVERSE CITY  MOSUNNY   93  62  35 SW8       30.05F HX  93
$$
MIZ007>008-015-232100-
EASTERN UPPER MICHIGAN

CITY           SKY/WX    TMP DP  RH WIND       PRES   REMARKS
KINROSS        SUNNY     86  70  58 VRB7      30.04F HX  90
MACKINAC ISLAN SUNNY     80  64  58 SW8       30.05F
NEWBERRY       SUNNY     82  69  66 S12       30.01S
S. S. MARIE    SUNNY     89  68  49 SW13      30.00F HX  93
MUNISING         N/A     88  73  61 SW9G18    29.97S HX  95
$$
MIZ004>006-011>014-085-232100-
CENTRAL UPPER MICHIGAN

CITY           SKY/WX    TMP DP  RH WIND       PRES   REMARKS
MANISTIQUE     SUNNY     72  66  81 S7        30.03F
ESCANABA       SUNNY     79  68  69 S13       30.00F
MENOMINEE      SUNNY     87  69  54 SW14      30.02F HX  91
SAWYER-GWINN   SUNNY     88  66  48 SW17      30.01F HX  90
$$
MIZ001>003-009>011-084-232100-
WESTERN UPPER MICHIGAN

CITY           SKY/WX    TMP DP  RH WIND       PRES   REMARKS
IRON MOUNTAIN  SUNNY     90  63  40 SW9       30.01S HX  91
HOUGHTON       MOSUNNY   86  70  58 SW9       29.94F HX  90
COPPER HARBOR    N/A     80  67  64 CALM      29.93S
IRONWOOD       SUNNY     87  71  58 SW14      29.96F HX  93
$$

ABBREVIATIONS USED IN REMARKS
   TC - TEMPERATURE IN CELSIUS
  WCI - WIND CHILL INDEX
   HX - HEAT INDEX
  VSB - VISIBILITY




USA.gov is the U.S. government's official web portal to all federal, state and local government web resources and services.